This demonstration page uses our WeatherBlox Daily Observations layout. Learn more.

Left ArrowRight Arrow

Hourly Observations for August 9, 2022

Temp ( °F °C ) Dew Point ( °F °C ) Humidity (%) Winds ( mph kmh ) Pressure ( in mb ) Visibility ( mi km ) Precip ( " mm )
12:53 am 00:53 Clear 84 28.9 51 10.6 32 32 SSE 10 17 29.92 1013 10 16 0.00 0.00
1:53 am 01:53 Clear 82 27.8 51 10.6 34 34 SSE 9 15 29.91 1013 10 16 0.00 0.00
2:53 am 02:53 Clear 79 26.1 51 10.6 38 38 SSE 8 13 29.89 1012 10 16 0.00 0.00
3:53 am 03:53 Clear 78 25.6 52 11.1 40 40 SE 6 9 29.89 1012 10 16 0.00 0.00
4:53 am 04:53 Clear 77 25 53 11.7 43 43 SE 8 13 29.91 1013 10 16 0.00 0.00
5:53 am 05:53 Clear 76 24.4 55 12.8 48 48 ESE 8 13 29.92 1013 10 16 0.00 0.00
6:53 am 06:53 Clear 74 23.3 55 12.8 52 52 ESE 8 13 29.94 1014 10 16 0.00 0.00
7:53 am 07:53 Sunny 76 24.4 58 14.4 54 54 ESE 13 20 29.95 1014 10 16 0.00 0.00
8:53 am 08:53 Sunny 78 25.6 60 15.6 54 54 SE 13 20 29.97 1015 10 16 0.00 0.00
9:53 am 09:53 Sunny 82 27.8 60 15.6 47 47 SSE 13 20 29.98 1015 10 16 0.00 0.00
10:53 am 10:53 undefined 86 30 59 15 40 40 SE 10 17 29.98 1015 10 16 0.00 0.00
11:53 am 11:53 Sunny 89 31.7 58 14.4 35 35 ESE 10 17 29.97 1015 10 16 0.00 0.00
12:53 pm 12:53 Sunny 91 32.8 56 13.3 31 31 ESE 12 19 29.96 1015 10 16 0.00 0.00
1:53 pm 13:53 Sunny 95 35 54 12.2 25 25 SE 17 28 29.93 1014 10 16 0.00 0.00
2:53 pm 14:53 Partly Cloudy 96 35.6 53 11.7 24 24 E 9 15 29.91 1013 10 16 0.00 0.00
3:53 pm 15:53 Partly Cloudy 95 35 51 10.6 23 23 SE 6 9 29.87 1012 10 16 0.00 0.00
4:53 pm 16:53 Sunny 96 35.6 52 11.1 23 23 SE 14 22 29.85 1011 10 16 0.00 0.00
5:53 pm 17:53 Sunny 96 35.6 51 10.6 22 22 SE 13 20 29.84 1010 10 16 0.00 0.00
6:53 pm 18:53 Mostly Sunny 95 35 52 11.1 24 24 ESE 18 30 29.83 1010 10 16 0.00 0.00
7:53 pm 19:53 Sunny 94 34.4 51 10.6 24 24 SSE 13 20 29.83 1010 10 16 0.00 0.00
8:53 pm 20:53 Clear 92 33.3 50 10 24 24 SE 8 13 29.85 1011 10 16 0.00 0.00
9:53 pm 21:53 Clear 90 32.2 53 11.7 29 29 SE 8 13 29.88 1012 10 16 0.00 0.00
10:53 pm 22:53 Clear 87 30.6 53 11.7 31 31 SE 7 11 29.90 1012 10 16 0.00 0.00
11:53 pm 23:53 Clear 84 28.9 57 13.9 40 40 E 16 26 29.93 1014 10 16 0.00 0.00

Powered by AerisWeather